Regional Weather Roundup
Issued by NWS Grand Forks, ND

Home | Current Version | Previous Version | Text Only | Print | Product List | Glossary Off
Versions: 1 2 3 4 5 6 7 8 9 10 11 12 13 14 15 16 17 18 19 20 21 22 23 24 25 26 27 28 29 30 31 32 33 34 35 36 37 38 39 40 41 42 43 44 45 46 47 48 49 50

000
ASUS43 KFGF 161831
RWRFGF
PRAIRIE TO PINES  WEATHER ROUNDUP
NATIONAL WEATHER SERVICE EASTERN NORTH DAKOTA/GRAND FORKS ND
100 PM CDT TUE SEP 16 2014

 **SATELLITE DATA USED TO AUGMENT SKY COVER AT AUTOMATED STATIONS**
 *****  WEATHER ACROSS EASTERN NORTH DAKOTA  *****

CITY           SKY/WX    TMP DP  RH WIND       PRES   REMARKS
GRAND FORKS    MOSUNNY   71  44  37 W10       29.99F
6HR MIN TEMP:  42; 6HR MAX TEMP:  71;

GRAND FRKS AFB SUNNY     72  46  39 SW10      30.00F
GRAND FRKS NWS   N/A     72 N/A N/A W6          N/A
DEVILS LAKE    SUNNY     66  43  42 SW6       29.98F
6HR MIN TEMP:  50; 6HR MAX TEMP:  66;

FARGO          SUNNY     68  44  42 S9        30.03F
WAHPETON ARPT  CLEAR     70  34  26 S12       30.03F
$$

 ***** WEATHER ACROSS CENTRAL AND WESTERN NORTH DAKOTA  *****

CITY           SKY/WX    TMP DP  RH WIND       PRES   REMARKS
BISMARCK       SUNNY     67  46  47 SE3       30.00F
6HR MIN TEMP:  40; 6HR MAX TEMP:  68;

MINOT          SUNNY     69  43  38 NE7       29.98F
6HR MIN TEMP:  47; 6HR MAX TEMP:  69;

JAMESTOWN      SUNNY     66  46  48 S10       30.00F
6HR MIN TEMP:  37; 6HR MAX TEMP:  66;

MINOT AFB      SUNNY     68  41  36 NE6       29.97F
GARRISON         N/A     64  47  53 S6        29.99F
WILLISTON      SUNNY     69  36  29 E3        29.99F
6HR MIN TEMP:  33; 6HR MAX TEMP:  70;

DICKINSON      SUNNY     69  48  47 NE5       29.97F
6HR MIN TEMP:  37; 6HR MAX TEMP:  69;

HETTINGER      SUNNY     70  46  42 VRB3      29.99F
6HR MIN TEMP:  33; 6HR MAX TEMP:  70;

$$

 *****  OTHER AIRPORT OBSERVATIONS IN OUR AREA  *****

CITY           SKY/WX    TMP DP  RH WIND       PRES   REMARKS
WALHALLA       CLOUDY    70  39  32 N7        29.97F
GRAFTON AIRPOR FAIR      70  45  40 E3        29.97F
VALLEY CITY AR FAIR      66  43  42 S10       30.01F
CANDO          FAIR      72  37  28 SW6       29.98F
CAVALIER APRT  FAIR      72  43  35 NW7       29.97S
GWINNER        CLEAR     70  46  43 S12       30.02F
SHEYENNE NWR     N/A     71  44  37 S6        29.95
ROLLA            N/A     70  39  32 W7        29.99F
 ***** THE ABOVE OBSERVATIONS ARE NON NWS ARE NOT QUALITY
       CONTROLLED AND MAY MIS-REPORT RAIN FOR SNOW...
$$

  *****  WEATHER ACROSS NORTHERN MINNESOTA  *****

CITY           SKY/WX    TMP DP  RH WIND       PRES   REMARKS
FLAG ISLAND    MOSUNNY   59  48  67 S5        29.98R
WARROAD        MOSUNNY   55  46  71 W5        30.00S
ROSEAU         CLOUDY    57  46  67 CALM      30.00S
HALLOCK        MOSUNNY   64  45  48 N6        29.98F
THF RVR FALLS  SUNNY     64  43  45 SW6       30.01F
6HR MIN TEMP:  43; 6HR MAX TEMP:  64;

BAUDETTE       CLOUDY    57  44  62 SW7       30.00S
6HR MIN TEMP:  48; 6HR MAX TEMP:  57;

WASKISH        PTSUNNY   61  48  63 CALM      30.01F
CROOKSTON      SUNNY     70  45  40 SW8       30.01F
STEPHEN NDAWN    N/A     70  46  43 SW5         N/A
GREENBUSH NDAW   N/A     61  45  55 W5          N/A
$$
  *****  WEATHER ACROSS CENTRAL AND WEST MINNESOTA  *****

CITY           SKY/WX    TMP DP  RH WIND       PRES   REMARKS
FOSSTON        SUNNY     68  45  42 SW9       30.03F
BEMIDJI        SUNNY     67  41  38 W12G20    30.02F
PARK RAPIDS    SUNNY     66  39  37 W9        30.05F
6HR MIN TEMP:  41; 6HR MAX TEMP:  66;

ELBOW LAKE     FAIR      65  40  39 S7        30.06F
6HR MIN TEMP:  37; 6HR MAX TEMP:  66;

WADENA         SUNNY     64  39  39 SW10      30.07S
DETROIT LAKES  SUNNY     64  41  42 S8        30.06F
MOORHEAD       SUNNY     68  39  34 S8        30.04F
FERGUS FALLS   SUNNY     66  34  30 S6        30.05F
MORRIS MN      SUNNY     68  43  40 S9        30.06F
STAPLES        SUNNY     66  37  34 SW7       30.07F
$$
  *****  WEATHER ELSEWHERE ACROSS MINNESOTA  *****

CITY           SKY/WX    TMP DP  RH WIND       PRES   REMARKS
DULUTH         MOSUNNY   66  41  40 W18G24    30.03F
6HR MIN TEMP:  44; 6HR MAX TEMP:  67;

INTRNTL FALLS  CLOUDY    56  45  66 NW9       30.00R
6HR MIN TEMP:  42; 6HR MAX TEMP:  58;

ELY            PTSUNNY   64  43  45 W13G20    29.98S
CLOQUET        SUNNY     66  37  34 SW13      30.05F
WHEATON        SUNNY     66  43  42 S6        30.05F
BRAINERD       SUNNY     64  41  42 SW10      30.08F
6HR MIN TEMP:  36; 6HR MAX TEMP:  64;

HIBBING        MOSUNNY   65  42  43 W10G18    30.02F
6HR MIN TEMP:  35; 6HR MAX TEMP:  66;

ALEXANDRIA     SUNNY     64  40  41 SW10      30.10F
6HR MIN TEMP:  42; 6HR MAX TEMP:  64;

SAINT CLOUD    SUNNY     67  41  38 S8G17     30.10F
6HR MIN TEMP:  38; 6HR MAX TEMP:  67;

MINNEAPOLIS    SUNNY     64  41  42 SW12      30.13F
6HR MIN TEMP:  43; 6HR MAX TEMP:  64;

$$

  *****  WEATHER ACROSS SOUTH DAKOTA  *****

CITY           SKY/WX    TMP DP  RH WIND       PRES   REMARKS
SIOUX FALLS    MOSUNNY   65  46  50 S14       30.09F
6HR MIN TEMP:  40; 6HR MAX TEMP:  65;

BROOKINGS      NOT AVBL
WATERTOWN      MOSUNNY   65  46  50 S15G22    30.04F
6HR MIN TEMP:  37; 6HR MAX TEMP:  65;

HURON          SUNNY     67  48  50 S14       30.02F
6HR MIN TEMP:  39; 6HR MAX TEMP:  67;

SISSETON         N/A     70  45  40 S13G20    30.02F
ABERDEEN       SUNNY     64  47  53 S12       30.01F
6HR MIN TEMP:  33; 6HR MAX TEMP:  64;

MITCHELL       MOSUNNY   68  50  52 S15G25    30.04F
PIERRE         SUNNY     69  50  50 CALM      29.97F
6HR MIN TEMP:  46; 6HR MAX TEMP:  69;

MOBRIDGE       SUNNY     66  48  52 VRB3      29.97F
RAPID CITY     SUNNY     77  46  33 SW3       30.02F
6HR MIN TEMP:  40; 6HR MAX TEMP:  77;

$$

  *****  SOME WEATHER IN NEARBY STATES *****

CITY           SKY/WX    TMP DP  RH WIND       PRES   REMARKS
GLASGOW MT     MOSUNNY   68  41  37 SE8       29.97F
6HR MIN TEMP:  44; 6HR MAX TEMP:  68;

GREAT FALLS MT MOSUNNY   72  39  30 SW7       29.99S
6HR MIN TEMP:  41; 6HR MAX TEMP:  72;

CHEYENNE WY    SUNNY     78  27  15 N16G28    30.21S
6HR MIN TEMP:  57; 6HR MAX TEMP:  78;

SCOTTSBLUFF NE SUNNY     74  52  46 W10       30.07F
6HR MIN TEMP:  46; 6HR MAX TEMP:  75;

OMAHA NE       SUNNY     63  46  54 S9        30.18F
6HR MIN TEMP:  45; 6HR MAX TEMP:  63;

DES MOINES IA  MOSUNNY   65  45  48 S7        30.19F
6HR MIN TEMP:  44; 6HR MAX TEMP:  65;

DAVENPORT IA   SUNNY     63  40  42 VRB3      30.20F
6HR MIN TEMP:  38; 6HR MAX TEMP:  63;

CHICAGO IL     MOSUNNY   63  39  41 NW6       30.17F
6HR MIN TEMP:  45; 6HR MAX TEMP:  63;

EAU CLAIRE WI  SUNNY     64  40  41 VRB7      30.13F
6HR MIN TEMP:  37; 6HR MAX TEMP:  64;

LA CROSSE WI   SUNNY     65  42  43 W8        30.16F
6HR MIN TEMP:  44; 6HR MAX TEMP:  65;

$$

  *****  SOME NATIONAL WEATHER *****

CITY           SKY/WX    TMP DP  RH WIND       PRES   REMARKS
LA GUARDIA NY  MOSUNNY   66  57  72 NE5       29.97F
6HR MIN TEMP:  58; 6HR MAX TEMP:  66; 6HR PCP:  0.41;

RALEIGH NC     PTSUNNY   80  60  50 NW5       30.01F
6HR MIN TEMP:  69; 6HR MAX TEMP:  83;

ATLANTA GA     PTSUNNY   85  69  58 VRB5      30.06F
6HR MIN TEMP:  72; 6HR MAX TEMP:  85;

NEW ORLEANS LA TSTM      81  71  71 SW9       30.04F
6HR MIN TEMP:  76; 6HR MAX TEMP:  89;

OKLAHOMA CITY  MOSUNNY   84  70  61 VRB3      30.12F
6HR MIN TEMP:  70; 6HR MAX TEMP:  84;

ALBUQUERQUE NM CLOUDY    70  58  65 W7        30.30F
6HR MIN TEMP:  64; 6HR MAX TEMP:  70;

SALT LAKE CITY PTSUNNY   85  39  19 S12       30.07F
6HR MIN TEMP:  61; 6HR MAX TEMP:  85; 6HR PCP: TRACE;




USA.gov is the U.S. government's official web portal to all federal, state and local government web resources and services.